カタログに戻る

NOAA 16 DEB

運用中SSO
NORAD 41300·DEBRIS·🇺🇸 United States

打ち上げ Sep 21, 2000 から Vandenberg Space Force Base

Loading…

次のパス (今後24時間)

TLE

最新Source: Space-Track

元期: Sep 12, 2026, 06:54 UTC

1 41300U 00055HC  26255.28756442  .00001642  00000-0  84324-3 0  9993
2 41300  98.6936 279.7578 0038966 350.6177   9.4265 14.16324245549733

AllMySatでNOAA 16 DEBをリアルタイム追跡

Download on the App Store